Vertical_Velocity
-3 -3 -3 -4 -4 -5 -4 -4 -2 -1 -1 -2 -2 -2 -2 -2 -3 -3 -3 -2 -3 -4 -4 -3 -3 -2 -0 0 0 -0 -1 -0 -1 -1 -2 -1 2 8 14 18 17 17 17 17 20 26 33 43 35 22 10 6 4 3 1 -1 -2 -2 -2 -2 -1 0 2 2 2 1 1 1 2
-2 -2 -2 -3 -4 -5 -5 -4 -3 -2 -2 -2 -3 -3 -3 -3 -3 -3 -2 -2 -2 -3 -3 -3 -2 -0 -0 -0 -0 -1 -1 -1 -2 -3 -3 -1 4 13 23 30 26 20 12 7 8 14 22 28 21 14 9 8 6 4 1 -0 -1 -2 -3 -3 -1 1 2 2 1 0 1 2 5
-1 -2 -2 -3 -4 -5 -5 -4 -3 -2 -2 -2 -2 -2 -2 -2 -2 -2 -1 -1 -1 -2 -2 -2 -1 -1 -0 -1 -1 -1 -2 -3 -4 -6 -6 -2 6 18 31 41 28 15 6 4 2 4 6 7 6 5 4 3 2 1 -0 -1 -2 -3 -4 -3 -1 0 1 1 -0 -0 0 4 7
-1 -2 -3 -4 -4 -4 -4 -3 -3 -2 -1 -1 -2 -2 -2 -2 -1 -1 -1 -1 -1 -2 -2 -2 -1 -1 -0 -0 -1 -2 -3 -4 -7 -10 -10 -4 5 17 31 47 23 8 3 7 4 1 -2 -2 -1 -0 -0 -0 -0 -0 -1 -2 -3 -3 -3 -2 -0 1 0 -1 -2 0 5 10 10
-2 -2 -3 -4 -4 -3 -2 -2 -1 -1 -1 -1 -1 -1 -2 -2 -2 -2 -1 -1 -1 -1 -1 -1 -1 -0 0 0 -0 -2 -3 -6 -11 -12 -10 -5 3 13 26 45 21 6 1 6 6 6 4 -0 -1 -1 -1 -0 -1 -1 -1 -2 -2 -2 -2 0 1 1 -0 1 3 6 8 10 10
-3 -3 -3 -3 -2 -2 -1 -0 -0 -0 -0 -1 -1 -1 -1 -1 -2 -2 -1 -1 -1 -0 -0 -0 -0 1 2 2 1 -1 -4 -10 -13 -12 -7 -3 2 8 15 26 18 13 11 12 14 14 11 3 1 0 0 -1 -1 -2 -3 -3 -2 -1 1 2 4 4 5 10 11 8 4 3 6
-3 -3 -2 -1 -1 -0 -0 -0 -0 -0 0 0 1 1 0 -0 -1 -1 -1 -1 -1 -0 -0 -0 0 2 3 4 2 -0 -4 -9 -10 -7 -2 2 5 6 7 8 12 20 26 24 27 23 14 4 2 0 -1 -2 -3 -3 -3 -3 -0 1 2 4 4 5 5 4 3 1 0 -0 3
-4 -4 -3 -1 -0 -0 -0 -1 -1 -1 -0 0 1 1 2 1 0 -0 -1 -1 -0 -0 0 0 1 2 4 6 4 2 -2 -4 -4 -1 2 6 7 6 4 2 10 24 37 39 32 19 7 -0 -1 -2 -3 -4 -4 -4 -4 -3 -1 1 2 3 3 3 1 -1 -2 -1 -1 -0 1
-4 -4 -4 -2 -1 -0 -0 -1 -1 -1 -1 -1 -0 1 1 1 0 -0 0 1 1 1 1 1 1 2 4 6 6 4 1 -0 0 1 2 4 4 2 0 1 16 34 48 51 30 10 -4 -5 -5 -4 -4 -4 -4 -3 -3 -1 0 2 3 3 2 2 1 0 0 -0 -0 -1 0
-3 -4 -4 -3 -1 -0 -0 -1 -1 -1 -2 -2 -2 -1 -1 -1 -1 -1 -1 -1 -0 -0 -0 -0 -0 0 1 2 3 3 2 1 0 -1 -2 -2 -1 -2 -0 8 28 43 50 46 24 5 -7 -6 -5 -4 -3 -3 -2 -2 -0 1 2 3 4 3 2 1 0 0 -0 -0 -0 -1 1
-3 -3 -4 -3 -1 -0 -1 -1 -1 -1 -1 -2 -3 -4 -3 -3 -4 -4 -4 -4 -3 -3 -2 -0 -1 -2 -4 -5 -5 -5 -4 -4 -5 -6 -6 -4 -3 -2 4 19 33 39 37 28 13 1 -5 -4 -3 -2 -1 -0 0 1 2 3 4 4 4 3 2 0 -0 -1 -1 -2 -1 0 3
-4 -3 -3 -3 -1 -1 -1 -1 -0 -0 -1 -1 -3 -5 -6 -5 -5 -5 -4 -3 -3 -1 1 3 -0 -3 -6 -8 -9 -9 -8 -7 -7 -5 -2 4 4 6 11 22 25 23 18 11 2 -2 -3 -1 -0 1 2 2 2 3 4 5 5 5 4 2 1 -0 -1 -2 -3 -3 -3 -1 2
-5 -4 -3 -2 -2 -1 -0 0 0 0 0 -0 -2 -3 -4 -4 -3 -3 -2 0 2 4 6 4 -1 -4 -5 -6 -6 -4 -2 -2 -0 3 7 11 9 8 9 12 13 10 5 0 -2 -1 0 2 2 3 4 3 3 3 4 5 5 4 2 1 0 -0 -1 -2 -3 -4 -4 -3 0
-4 -3 -3 -2 -2 -1 0 0 0 0 -0 -1 -1 -0 -0 -1 1 2 3 6 6 4 2 1 -2 -3 -2 -1 0 1 3 4 6 8 10 10 6 2 1 3 6 4 1 -2 -0 1 3 3 3 4 4 4 3 2 2 3 3 2 1 1 1 1 1 0 -1 -2 -2 0 1
-3 -2 -2 -1 -1 0 1 1 -0 -1 -2 -3 -2 0 2 -0 3 5 6 4 1 -2 -3 -1 -1 1 3 4 6 7 8 7 7 7 6 3 0 -2 -2 1 5 4 1 0 1 2 3 3 3 3 3 4 3 2 1 1 1 1 1 1 3 5 6 5 3 1 1 3 2
-2 -2 -2 -1 -0 1 2 1 -0 -2 -3 -4 -2 0 1 0 -0 0 0 -1 -3 -4 -4 -2 1 4 6 9 11 11 11 10 8 7 5 3 0 -1 0 4 4 3 2 2 2 2 1 1 1 2 2 3 3 2 1 1 1 0 -0 0 5 7 7 6 3 2 2 3 2
-1 -2 -2 -1 -0 1 2 2 1 -0 -2 -2 -2 -0 1 1 -1 -1 -1 -1 -2 -2 -2 -2 2 7 12 16 15 13 12 12 9 8 7 6 4 3 3 4 2 1 0 0 -0 -0 -0 -0 0 0 1 1 2 2 1 1 1 0 -0 1 6 6 4 3 1 1 2 4 2
-1 -1 -1 -1 2 2 2 2 3 2 1 -0 -1 -1 0 1 -0 -2 -3 -3 -3 -3 -2 0 5 11 18 23 19 13 8 6 5 5 5 5 5 2 0 -0 -1 -2 -2 -2 -2 -2 -1 -1 -0 -0 -0 0 1 1 1 1 0 -0 1 4 4 3 1 0 -0 1 2 4 1
-0 -1 -1 -0 1 2 2 3 4 3 2 1 -0 -0 0 1 1 -0 -2 -4 -4 -4 -2 2 7 10 15 23 19 12 5 -0 0 -0 0 2 1 -1 -3 -3 -4 -3 -3 -3 -2 -2 -1 -1 -1 -1 -1 -0 -0 -0 -0 -0 -1 -1 -1 -0 -1 -1 -2 -1 -0 1 3 4 0
-0 -1 -1 -1 -0 1 2 3 3 3 3 2 0 -0 0 1 2 1 -0 -3 -3 -4 -3 -1 2 3 4 8 9 7 3 1 2 1 -1 -1 -2 -3 -4 -4 -4 -3 -3 -2 -2 -1 -1 -1 -2 -2 -1 -1 -2 -2 -0 1 -1 -3 -5 -6 -6 -4 -3 -1 1 3 4 3 1
-0 -1 -1 -1 -1 -0 0 2 2 2 2 2 0 0 1 0 1 1 -0 -1 -3 -3 -4 -3 -3 -2 -1 -1 0 0 0 0 3 2 -0 -2 -2 -2 -2 -2 -2 -2 -2 -1 -0 -0 -1 -1 -2 -2 -2 -2 -3 -1 3 5 1 -3 -6 -7 -5 -4 -2 -0 3 4 4 2 2
-0 -0 -1 -1 -2 -1 -1 1 1 1 1 1 -0 -0 -0 -1 -0 -0 -0 -1 -2 -3 -3 -3 -3 -2 -2 -1 -1 -0 0 0 1 1 -0 -1 -1 -1 -1 -1 -1 -1 -0 -0 0 -0 -0 -1 -1 -1 -2 -3 -3 0 4 5 2 -1 -4 -3 -1 -0 1 3 4 4 3 1 2
-0 -0 -1 -1 -2 -1 -1 -0 -0 0 0 -0 -1 -1 -2 -2 -1 -1 -1 -1 -1 -2 -2 -2 -2 -2 -2 -1 -1 -0 0 1 1 1 1 0 0 0 -0 -0 -0 -0 0 0 0 -0 -1 -1 -1 -1 -2 -3 -1 1 2 0 -1 -2 -1 0 1 3 4 5 4 3 1 0 1
-1 -0 -0 -0 -1 -1 -1 -0 -0 -0 -0 -0 -1 -1 -1 -1 -2 -1 -1 -0 -0 -1 -1 -1 -1 -1 -1 -1 -1 -0 -0 0 1 1 1 1 1 1 0 0 0 0 0 0 0 -0 -1 -1 -1 -1 -1 -2 0 2 1 -1 -2 -1 1 2 2 3 4 4 3 1 -0 -0 1
-1 -1 -0 -0 -0 -0 -0 0 0 0 -0 -0 -0 -0 -1 -1 -1 -1 -0 -0 0 -0 -0 -0 -0 -0 -0 -0 -0 -0 -0 -0 -0 0 0 0 1 1 1 0 0 0 -0 -0 -1 -1 -1 -1 -1 -1 -1 -0 3 4 4 3 4 4 4 2 2 2 2 3 2 0 -1 -1 1
-1 -0 -0 0 0 0 0 1 1 1 0 0 0 -0 -0 -0 -0 -0 0 0 0 0 0 -0 0 -0 -0 -0 -0 -0 -0 -0 -1 -1 -0 -0 -0 0 0 -0 -0 -0 -0 -1 -1 -1 -1 -1 -0 -0 2 5 8 9 9 8 7 6 4 2 2 2 2 3 2 1 -0 -1 -0
-0 -0 0 1 1 0 0 1 1 1 1 1 0 0 0 0 0 0 0 1 1 1 1 0 0 0 -0 -0 -0 -0 0 0 -0 -0 -1 -1 -1 -1 -1 -1 -1 -1 -0 -0 -1 -2 -1 -1 1 3 6 8 8 8 6 5 3 2 1 1 1 2 3 3 3 1 -1 -4 -3
-0 0 1 1 1 1 0 0 0 1 1 1 1 1 1 0 0 0 0 1 1 1 1 1 1 1 0 -0 -0 -0 -0 -0 -0 -0 -0 -1 -1 -1 -1 -1 -1 -0 -1 -2 -2 -1 0 2 4 6 6 6 4 3 2 0 -1 -2 -3 -2 -1 0 1 3 3 0 -3 -8 -8
-0 0 1 1 1 1 0 -0 -0 0 1 1 1 1 1 1 0 0 0 0 1 1 1 1 1 1 1 0 -0 -1 -1 -1 -0 -0 -1 -2 -3 -3 -3 -3 -2 -2 -1 1 3 4 5 5 6 6 5 3 2 0 -1 -3 -4 -4 -3 -1 -0 0 1 2 2 0 -3 -8 -10
-0 -0 1 1 1 1 1 0 0 0 0 1 1 1 1 0 0 -0 -0 -1 -0 -0 0 0 1 0 0 -0 -2 -2 -2 -0 -1 -2 -1 3 4 1 -2 -3 -3 -0 4 9 10 8 5 3 3 2 1 -0 -0 -1 -2 -4 -4 -2 -1 1 2 2 2 1 1 1 -1 -4 -6
-0 -0 0 1 1 1 1 1 0 -0 -0 -0 -0 -0 -0 -0 -0 -1 -1 -1 -1 -1 -1 -0 -0 -1 -1 -2 -4 -4 -3 -2 -4 -3 -0 4 7 7 6 6 5 6 8 10 8 5 2 -0 -1 -1 -0 -0 0 -0 -1 -2 -2 -1 0 1 2 2 2 2 3 2 1 -0 -1
-0 -0 -0 0 0 -0 -0 -0 -0 -1 -1 -1 -0 -1 -1 -1 -0 -0 -0 -1 -1 -1 -2 -2 -2 -2 -3 -4 -5 -4 -3 -4 -4 -4 -2 -0 3 6 10 11 10 9 7 6 4 2 0 -2 1 6 8 2 2 1 1 -0 -0 -0 -0 -0 0 1 2 2 1 1 2 2 1
-0 -0 -0 -0 -1 -1 -1 -1 -1 -1 -1 -1 -1 -2 -2 -3 -2 -1 -0 -0 -1 -1 -2 -3 -3 -5 -6 -6 -5 -4 -4 -4 -2 -1 0 1 1 3 7 10 7 6 4 3 2 2 3 7 15 18 15 3 1 -0 -1 -2 -2 -2 -1 -1 -0 0 1 1 1 2 3 3 2
-0 -0 -0 -0 -1 -1 -1 -1 -1 -1 -2 -3 -2 -2 -2 -3 -4 -4 -2 -1 -1 -1 -1 -1 -2 -4 -5 -5 -4 -4 -4 -3 -0 2 3 4 4 3 3 6 7 7 7 7 9 11 15 19 23 21 13 1 -2 -4 -4 -4 -2 -1 -1 -0 -0 0 1 1 2 3 4 3 3
0 0 -0 -0 -0 -1 -1 -2 -1 -0 -0 -1 -1 -1 -1 -2 -4 -4 -3 -3 -2 -1 -0 -0 -1 -2 -3 -3 -3 -2 -2 -1 0 1 2 3 3 2 1 4 8 13 16 18 18 17 16 15 12 7 1 -4 -6 -7 -6 -3 -1 -1 -0 -0 -0 -0 0 1 2 3 3 3 2
1 1 0 -1 -1 -2 -3 -3 -0 2 3 2 0 -1 -2 -2 -3 -3 -3 -3 -3 -2 -1 -0 -1 -1 -1 -1 -1 -1 -0 0 -1 -2 -3 -1 -1 -1 -1 -1 2 7 10 10 9 7 4 2 -0 -2 -4 -6 -7 -6 -4 -1 -0 -0 -0 0 0 1 1 2 2 2 2 1 1
2 1 1 -0 -2 -3 -3 -1 2 4 4 2 1 -0 -0 0 -0 -1 -2 -2 -3 -3 -2 -1 -0 0 0 1 -1 -1 -2 -1 -1 -2 -2 -0 -2 -2 -2 -1 -1 -0 0 1 0 -1 -2 -3 -4 -5 -6 -7 -5 -3 -1 -0 -0 -0 0 1 1 1 1 1 1 1 1 1 0
2 2 1 0 -0 -1 -0 1 2 3 3 1 1 1 1 1 1 1 1 -0 -1 -1 -1 -0 0 1 2 3 1 -0 -1 -2 -2 -2 -3 -3 -3 -3 -2 -1 -0 0 -0 -0 -2 -3 -5 -6 -7 -7 -6 -4 -2 -0 -0 -0 -0 0 1 1 1 1 1 1 1 0 0 0 0
4 3 1 1 2 1 1 1 1 1 1 -0 -1 -1 -1 -1 -1 -0 0 0 0 0 1 2 2 2 4 5 3 0 -2 -2 -2 -2 -2 -2 -3 -3 -3 -2 -2 -2 -2 -4 -6 -8 -9 -9 -7 -4 -2 0 1 0 -0 -1 -1 -0 1 1 1 1 1 1 0 0 0 0 0
5 4 2 2 2 2 1 0 0 -0 -1 -2 -3 -3 -3 -3 -3 -2 -2 -1 -1 0 1 2 1 1 2 2 1 -1 -2 -2 -2 -2 -2 -3 -4 -4 -5 -5 -5 -5 -6 -8 -9 -9 -8 -6 -2 -0 1 2 1 -0 -1 -0 1 2 2 1 1 1 1 1 0 0 0 0 0
4 2 1 1 2 2 1 -0 -0 -1 -2 -3 -3 -4 -4 -4 -4 -3 -3 -2 -1 -0 1 1 0 0 0 -0 -2 -3 -4 -4 -3 -3 -4 -4 -5 -6 -6 -5 -4 -4 -4 -5 -5 -4 -2 -0 1 1 1 1 0 0 1 2 4 4 3 1 1 0 -0 -0 1 1 1 0 0
Height
3005 3003 3001 3000 2998 2996 2995 2993 2991 2990 2989 2988 2987 2986 2985 2985 2985 2985 2985 2985 2985 2985 2986 2987 2987 2988 2989 2990 2990 2991 2992 2993 2994 2996 2997 2999 2999 3002 3005 3008 3009 3010 3011 3012 3012 3013 3016 3018 3021 3023 3026 3028 3030 3032 3034 3036 3038 3039 3041 3042 3044 3045 3047 3048 3049 3050 3051 3052 3054
3003 3001 3000 2998 2996 2995 2993 2991 2990 2989 2988 2987 2985 2985 2984 2984 2984 2983 2983 2984 2984 2984 2985 2985 2986 2986 2987 2988 2988 2989 2990 2991 2992 2994 2995 2996 2997 3000 3004 3008 3009 3009 3008 3008 3009 3011 3014 3017 3020 3022 3025 3027 3029 3031 3032 3034 3036 3037 3039 3040 3042 3043 3045 3046 3047 3049 3050 3051 3053
3002 3000 2999 2997 2995 2994 2992 2990 2989 2988 2987 2986 2985 2984 2983 2983 2982 2982 2982 2982 2983 2983 2983 2984 2985 2985 2985 2986 2986 2987 2988 2989 2990 2992 2993 2994 2995 2997 3002 3006 3006 3005 3006 3007 3009 3011 3014 3016 3019 3021 3024 3025 3027 3029 3031 3033 3035 3036 3038 3039 3040 3042 3043 3045 3046 3048 3049 3050 3051
3001 2999 2998 2996 2995 2993 2991 2990 2988 2987 2986 2985 2984 2983 2983 2982 2982 2981 2981 2981 2981 2982 2982 2982 2983 2984 2984 2984 2985 2985 2986 2987 2988 2990 2990 2992 2993 2994 2998 3003 3003 3003 3005 3008 3010 3012 3014 3017 3019 3021 3023 3025 3026 3028 3030 3032 3034 3035 3037 3038 3039 3040 3042 3043 3045 3046 3048 3049 3050
3000 2998 2997 2995 2994 2992 2991 2989 2988 2987 2986 2985 2984 2983 2982 2982 2981 2981 2980 2980 2980 2980 2981 2981 2981 2982 2982 2983 2983 2984 2985 2986 2987 2988 2989 2990 2990 2991 2993 2997 3000 3003 3005 3008 3010 3011 3014 3016 3018 3020 3022 3023 3025 3027 3029 3031 3033 3034 3035 3037 3038 3039 3040 3042 3044 3045 3047 3048 3049
3000 2998 2996 2995 2993 2992 2990 2989 2988 2987 2986 2985 2984 2983 2982 2982 2981 2980 2980 2980 2980 2980 2980 2980 2980 2980 2981 2981 2982 2982 2984 2985 2985 2987 2987 2988 2988 2989 2990 2992 2996 3001 3005 3008 3009 3011 3013 3015 3017 3019 3020 3022 3024 3026 3028 3030 3031 3033 3034 3035 3036 3038 3040 3043 3044 3045 3045 3046 3047
2999 2998 2996 2995 2993 2992 2990 2989 2988 2987 2986 2985 2985 2984 2982 2982 2981 2980 2980 2979 2979 2979 2979 2979 2979 2979 2980 2980 2980 2981 2983 2984 2985 2985 2986 2986 2987 2987 2988 2991 2994 2999 3004 3008 3009 3010 3012 3015 3016 3018 3020 3022 3024 3025 3027 3029 3030 3031 3033 3034 3036 3038 3039 3040 3041 3042 3043 3045 3046
2999 2997 2996 2995 2993 2992 2991 2990 2989 2987 2986 2985 2985 2984 2983 2982 2981 2980 2979 2979 2978 2978 2978 2978 2978 2978 2978 2979 2979 2980 2982 2983 2984 2985 2985 2986 2986 2986 2988 2990 2993 2997 3003 3007 3008 3010 3012 3014 3016 3018 3020 3022 3023 3025 3026 3028 3029 3030 3031 3033 3034 3035 3036 3037 3039 3040 3042 3044 3045
2999 2997 2995 2995 2993 2992 2991 2990 2989 2988 2987 2985 2985 2984 2983 2982 2981 2980 2980 2979 2979 2978 2978 2978 2978 2978 2978 2978 2978 2979 2980 2981 2982 2984 2985 2985 2985 2986 2988 2990 2993 2997 3002 3005 3007 3008 3011 3014 3016 3018 3020 3021 3023 3024 3025 3026 3028 3029 3030 3031 3032 3033 3035 3036 3038 3040 3041 3043 3044
2999 2997 2996 2995 2994 2993 2992 2991 2990 2988 2987 2986 2985 2984 2984 2983 2982 2981 2980 2980 2979 2979 2978 2978 2978 2977 2977 2977 2977 2978 2979 2979 2980 2982 2983 2984 2985 2986 2989 2991 2994 2998 3002 3004 3005 3008 3011 3014 3016 3018 3020 3021 3022 3023 3024 3025 3026 3028 3029 3030 3031 3032 3034 3035 3037 3039 3040 3042 3043
2999 2997 2996 2995 2995 2993 2992 2991 2990 2989 2987 2986 2985 2985 2984 2983 2982 2981 2981 2980 2979 2979 2978 2978 2978 2977 2976 2976 2976 2977 2977 2978 2979 2979 2980 2982 2984 2987 2990 2992 2995 2999 3001 3003 3005 3008 3011 3014 3016 3017 3019 3020 3021 3022 3023 3024 3025 3027 3028 3029 3030 3032 3033 3035 3036 3038 3039 3040 3041
3000 2998 2996 2995 2995 2994 2992 2991 2990 2989 2988 2987 2986 2985 2984 2983 2983 2982 2981 2980 2980 2979 2978 2978 2978 2977 2976 2976 2976 2976 2976 2976 2977 2978 2980 2982 2985 2988 2991 2994 2996 2998 3000 3003 3006 3009 3011 3014 3015 3017 3018 3019 3020 3021 3023 3024 3025 3026 3028 3029 3030 3031 3033 3034 3035 3037 3038 3039 3040
3000 2999 2997 2996 2995 2994 2992 2991 2990 2989 2988 2987 2986 2985 2985 2984 2983 2982 2982 2981 2980 2979 2979 2979 2978 2977 2976 2976 2976 2975 2975 2975 2976 2978 2981 2984 2987 2989 2992 2995 2997 2999 3001 3004 3007 3010 3012 3014 3015 3016 3018 3019 3020 3021 3022 3023 3025 3026 3027 3029 3030 3031 3032 3034 3035 3036 3037 3038 3039
3000 2999 2997 2996 2995 2994 2992 2991 2990 2989 2989 2988 2987 2987 2986 2985 2984 2983 2982 2981 2981 2980 2980 2979 2978 2976 2975 2975 2975 2975 2975 2976 2979 2981 2984 2986 2989 2991 2993 2996 2998 3000 3003 3005 3008 3010 3012 3013 3015 3016 3018 3019 3020 3020 3021 3023 3024 3025 3027 3028 3030 3031 3032 3033 3034 3035 3036 3037 3037
3000 2999 2997 2996 2995 2994 2993 2992 2991 2990 2989 2989 2988 2988 2987 2986 2985 2984 2983 2983 2982 2981 2980 2980 2978 2976 2975 2975 2976 2977 2978 2980 2982 2985 2986 2989 2991 2993 2995 2998 3000 3002 3004 3006 3008 3010 3011 3013 3015 3016 3017 3018 3019 3020 3021 3022 3023 3025 3026 3028 3029 3030 3031 3032 3032 3033 3034 3035 3036
3000 2999 2997 2996 2995 2995 2993 2992 2991 2991 2990 2990 2989 2989 2988 2987 2986 2985 2984 2983 2982 2981 2980 2980 2978 2976 2976 2978 2979 2980 2982 2983 2985 2987 2989 2991 2993 2995 2997 2999 3001 3002 3004 3006 3008 3010 3011 3013 3015 3016 3017 3018 3019 3019 3020 3022 3023 3024 3026 3027 3029 3030 3030 3030 3031 3032 3033 3034 3034
3000 2999 2997 2996 2996 2995 2994 2993 2992 2991 2991 2990 2990 2990 2989 2988 2987 2986 2985 2985 2984 2983 2981 2980 2979 2978 2979 2981 2982 2983 2985 2986 2987 2989 2991 2993 2995 2996 2998 3000 3001 3003 3004 3006 3008 3010 3011 3013 3014 3015 3016 3017 3018 3019 3020 3021 3023 3024 3025 3027 3028 3028 3028 3029 3030 3031 3033 3033 3033
3000 2999 2997 2997 2996 2996 2995 2994 2993 2992 2992 2991 2991 2990 2990 2989 2988 2987 2987 2986 2985 2984 2982 2980 2980 2980 2982 2984 2985 2985 2986 2988 2989 2990 2992 2994 2996 2997 2998 3000 3001 3003 3005 3006 3008 3010 3011 3013 3014 3015 3016 3016 3018 3019 3020 3021 3023 3024 3025 3026 3026 3026 3027 3029 3030 3031 3032 3032 3032
3000 2999 2998 2997 2996 2996 2995 2994 2993 2993 2992 2992 2991 2991 2990 2990 2989 2989 2988 2988 2987 2986 2985 2983 2982 2982 2983 2986 2987 2988 2988 2989 2990 2992 2993 2995 2996 2998 2999 3000 3002 3004 3005 3007 3008 3010 3011 3012 3013 3014 3015 3016 3018 3019 3020 3021 3022 3023 3024 3025 3025 3026 3027 3028 3030 3030 3031 3031 3032
3000 2999 2998 2997 2996 2996 2995 2994 2994 2993 2993 2992 2992 2991 2991 2990 2990 2990 2989 2989 2989 2989 2987 2986 2985 2985 2985 2987 2989 2990 2990 2991 2992 2994 2995 2996 2997 2999 3000 3001 3003 3004 3005 3007 3008 3010 3010 3012 3013 3014 3015 3016 3018 3019 3020 3021 3022 3023 3023 3024 3025 3025 3027 3028 3029 3030 3030 3031 3031
3000 2999 2998 2997 2996 2996 2996 2995 2994 2993 2993 2992 2992 2992 2992 2991 2991 2990 2990 2990 2990 2990 2990 2989 2989 2989 2989 2989 2990 2990 2991 2992 2994 2995 2996 2997 2998 2999 3000 3002 3003 3004 3005 3007 3008 3009 3010 3012 3013 3014 3015 3016 3017 3018 3020 3021 3022 3022 3023 3023 3024 3025 3026 3027 3028 3029 3030 3030 3031
3001 3000 2999 2998 2997 2996 2996 2995 2994 2994 2993 2993 2992 2992 2992 2992 2991 2991 2991 2991 2991 2991 2991 2991 2991 2991 2992 2992 2992 2992 2993 2993 2994 2995 2996 2997 2998 2999 3000 3002 3003 3004 3005 3007 3008 3009 3010 3011 3013 3014 3015 3016 3017 3018 3019 3020 3020 3021 3022 3023 3024 3025 3025 3026 3027 3028 3029 3030 3031
3001 3000 2999 2998 2997 2997 2996 2995 2995 2994 2994 2993 2993 2993 2993 2992 2992 2992 2992 2992 2992 2992 2992 2992 2992 2993 2993 2993 2994 2994 2994 2995 2995 2995 2996 2997 2998 3000 3000 3002 3003 3004 3005 3007 3008 3009 3010 3011 3012 3014 3015 3015 3016 3018 3018 3019 3019 3020 3021 3022 3023 3024 3024 3025 3026 3027 3028 3029 3030
3002 3001 3000 2999 2998 2997 2997 2996 2995 2995 2994 2994 2993 2993 2993 2993 2993 2992 2992 2992 2992 2992 2992 2993 2993 2993 2994 2994 2995 2995 2995 2995 2996 2996 2997 2998 2999 3000 3001 3002 3003 3004 3005 3007 3008 3009 3010 3011 3012 3013 3014 3015 3016 3017 3018 3018 3018 3019 3020 3021 3022 3022 3023 3024 3025 3025 3027 3028 3029
3002 3001 3000 3000 2999 2998 2997 2997 2996 2995 2995 2994 2994 2994 2993 2993 2993 2993 2993 2993 2993 2993 2993 2993 2994 2994 2995 2995 2995 2995 2996 2996 2996 2997 2998 2998 2999 3000 3001 3002 3004 3005 3006 3007 3008 3009 3010 3011 3012 3013 3014 3015 3016 3016 3017 3017 3018 3019 3019 3020 3020 3021 3022 3023 3023 3024 3025 3027 3028
3003 3002 3001 3000 3000 2999 2998 2997 2997 2996 2995 2995 2995 2994 2994 2994 2993 2993 2993 2993 2993 2993 2993 2994 2994 2995 2995 2995 2995 2996 2996 2996 2997 2997 2998 2999 3000 3001 3002 3003 3004 3005 3006 3007 3008 3009 3010 3011 3012 3013 3014 3015 3015 3016 3016 3017 3017 3018 3018 3019 3020 3020 3021 3021 3022 3023 3024 3025 3026
3003 3002 3002 3001 3000 2999 2999 2998 2997 2997 2996 2996 2995 2995 2995 2994 2994 2994 2994 2994 2994 2994 2994 2995 2995 2995 2995 2995 2996 2996 2997 2997 2998 2998 2999 2999 3000 3001 3002 3003 3004 3005 3006 3007 3008 3008 3009 3010 3011 3012 3013 3014 3014 3015 3015 3015 3016 3016 3017 3017 3018 3019 3020 3020 3021 3022 3023 3024 3025
3003 3003 3002 3002 3001 3000 2999 2998 2998 2997 2997 2996 2996 2996 2995 2995 2995 2995 2995 2995 2995 2995 2995 2995 2995 2995 2996 2996 2996 2997 2997 2998 2998 2999 2999 3000 3000 3001 3002 3003 3004 3005 3006 3007 3008 3008 3009 3010 3011 3011 3012 3012 3012 3013 3014 3014 3015 3015 3016 3017 3018 3019 3020 3021 3022 3023 3024 3025 3025
3004 3003 3003 3002 3001 3000 3000 2999 2998 2998 2997 2997 2996 2996 2996 2996 2995 2995 2996 2996 2996 2996 2996 2996 2996 2996 2996 2997 2997 2997 2998 2998 2999 2999 3000 3000 3001 3002 3003 3003 3004 3005 3006 3007 3008 3009 3009 3010 3010 3010 3010 3011 3011 3012 3012 3013 3014 3015 3017 3018 3019 3020 3020 3021 3023 3024 3025 3026 3026
3004 3004 3003 3003 3002 3001 3000 3000 2999 2998 2998 2997 2997 2996 2996 2996 2996 2996 2996 2996 2996 2996 2996 2996 2997 2997 2997 2997 2997 2997 2998 2999 2999 3000 3000 3000 3001 3002 3003 3004 3005 3005 3007 3008 3008 3008 3008 3009 3009 3010 3010 3011 3011 3012 3012 3014 3015 3016 3017 3019 3020 3020 3021 3022 3023 3025 3026 3027 3028
3005 3004 3004 3003 3002 3002 3001 3000 3000 2999 2998 2998 2997 2997 2996 2996 2996 2996 2996 2996 2997 2997 2997 2997 2997 2997 2998 2998 2997 2998 2998 2999 2999 3000 3000 3000 3001 3002 3003 3004 3005 3006 3007 3007 3007 3007 3008 3009 3010 3011 3011 3011 3012 3013 3013 3015 3015 3017 3018 3019 3020 3020 3021 3022 3024 3025 3025 3026 3028
3005 3005 3004 3004 3003 3002 3001 3001 3000 2999 2999 2998 2998 2997 2997 2997 2997 2997 2997 2997 2997 2997 2997 2998 2998 2998 2998 2998 2998 2998 2999 2999 3000 3000 3000 3000 3001 3002 3003 3004 3005 3006 3006 3007 3007 3007 3008 3010 3011 3012 3013 3012 3013 3013 3014 3015 3016 3017 3018 3019 3020 3020 3021 3022 3023 3024 3025 3026 3028
3006 3005 3005 3004 3004 3003 3002 3001 3000 3000 2999 2999 2998 2998 2998 2997 2997 2997 2998 2998 2998 2998 2998 2998 2998 2999 2999 2999 2999 3000 3000 3000 3000 3000 3000 3000 3001 3002 3003 3004 3005 3005 3006 3006 3007 3008 3010 3011 3013 3013 3013 3012 3013 3013 3014 3015 3016 3017 3018 3019 3020 3021 3021 3022 3023 3024 3025 3026 3028
3006 3006 3005 3005 3004 3003 3003 3002 3001 3001 3000 2999 2999 2999 2999 2998 2998 2998 2998 2998 2998 2999 2999 2999 2999 2999 3000 3000 3000 3000 3000 3000 3001 3001 3001 3001 3001 3001 3003 3004 3006 3006 3007 3008 3009 3010 3011 3012 3012 3012 3012 3013 3013 3014 3015 3015 3016 3018 3019 3019 3020 3021 3022 3023 3023 3025 3025 3027 3028
3006 3006 3005 3005 3004 3004 3004 3003 3002 3002 3001 3000 3000 2999 2999 2999 2998 2998 2999 2999 2999 2999 3000 3000 3000 3000 3000 3000 3001 3001 3001 3001 3001 3001 3002 3002 3002 3002 3003 3005 3007 3008 3009 3009 3010 3010 3011 3011 3010 3011 3011 3013 3014 3015 3015 3016 3017 3018 3019 3020 3020 3021 3022 3023 3024 3025 3026 3027 3028
3007 3006 3005 3005 3005 3004 3004 3004 3003 3003 3002 3001 3000 3000 2999 2999 2999 2999 2999 3000 3000 3000 3000 3000 3000 3001 3001 3001 3001 3001 3001 3002 3002 3003 3003 3004 3004 3004 3004 3005 3005 3007 3007 3008 3008 3008 3009 3009 3010 3011 3012 3013 3014 3015 3016 3017 3017 3018 3019 3020 3020 3021 3022 3023 3024 3025 3026 3027 3028
3007 3007 3006 3005 3005 3004 3004 3004 3005 3004 3003 3001 3000 3000 3000 3000 3000 3000 3000 3000 3000 3000 3000 3001 3001 3001 3001 3001 3001 3001 3002 3002 3003 3004 3004 3004 3004 3004 3004 3005 3005 3005 3005 3006 3006 3007 3008 3009 3010 3011 3012 3014 3015 3016 3017 3017 3018 3018 3019 3020 3021 3022 3023 3024 3025 3025 3026 3027 3028
3008 3007 3006 3005 3005 3005 3004 3004 3004 3004 3003 3002 3001 3001 3001 3001 3001 3001 3001 3001 3001 3001 3001 3001 3001 3002 3002 3002 3002 3002 3002 3003 3003 3003 3004 3004 3004 3005 3005 3005 3005 3006 3006 3006 3007 3008 3009 3009 3010 3012 3014 3015 3016 3017 3017 3018 3018 3019 3020 3021 3021 3022 3023 3024 3025 3026 3027 3028 3028
3008 3007 3006 3005 3005 3005 3005 3004 3004 3004 3003 3002 3002 3001 3001 3001 3001 3001 3001 3001 3001 3001 3002 3002 3002 3002 3002 3002 3002 3002 3002 3003 3004 3004 3005 3005 3005 3006 3006 3006 3007 3007 3007 3008 3008 3009 3010 3010 3012 3014 3015 3016 3016 3017 3017 3018 3019 3020 3021 3021 3022 3023 3024 3025 3025 3026 3027 3028 3028
3009 3007 3006 3006 3006 3005 3005 3005 3004 3004 3003 3003 3002 3002 3001 3001 3001 3001 3001 3001 3002 3002 3002 3002 3002 3002 3002 3003 3003 3004 3004 3004 3005 3005 3006 3006 3007 3007 3007 3008 3008 3009 3009 3009 3010 3010 3011 3013 3014 3015 3016 3016 3017 3018 3018 3019 3020 3021 3022 3022 3023 3024 3024 3025 3026 3026 3027 3027 3028
3009 3008 3007 3007 3007 3006 3006 3005 3005 3005 3004 3003 3003 3002 3002 3002 3002 3002 3002 3003 3003 3004 3004 3004 3004 3004 3004 3004 3004 3005 3005 3005 3006 3006 3007 3007 3008 3008 3009 3009 3010 3010 3010 3011 3012 3013 3013 3014 3015 3015 3016 3017 3018 3018 3019 3020 3021 3022 3022 3023 3024 3024 3025 3025 3026 3026 3027 3027 3027